Location: Étavigny
(49.1201°N, 2.9800°E)
Time: 10:06:42
(UTC+00:00)

COSMO-SKYMED 1 - Pass Details

Date: 28 January 2023
Orbit: 621 x 623 km, 97.9° (Epoch: 23 March)

Event Time Altitude Azimuth Distance (km) Brightness Sun altitude
Rises 18:28:05 0° 9° (N) 2,921 5.9 -18.0°
Reaches altitude 10° 18:30:20 10° 5° (N) 2,009 5.1 -18.3°
Maximum altitude 18:34:34 53° 289° (WNW) 771 3.3 -19.0°
Drops below altitude 10° 18:38:48 10° 213° (SSW) 1,993 5.7 -19.7°
Sets 18:41:01 0° 208° (SSW) 2,894 6.5 -20.1°
